STARLINK-35663

Last updated on Tue Dec 16 2025 00:02:05 GMT+0000 (Coordinated Universal Time)

1 66491U 25263G 25349.07028198 .00050760 00000+0 86496-3 0 9995 2 66491 43.0019 111.5111 0000766 283.7600 76.3175 15.50595351 5925
UTC large
Height (km)
Speed (km/s)
/
Latitude / Longitude
Inclination (degrees)
Orbital Period (minutes)
Azimuth
Elevation
Range (km)
Doppler Factor

Next 0 passes for location: London (51.5072 / 0.1276)

Sorry there are no passes over London.